Location: Bieg
(49.3499°N, 10.3835°E)
Time: 16:58:48
(UTC+00:00)

Meteor 1-28 Rocket - Pass Details

Date: 16 December 2025
Orbit: 429 x 441 km, 97.6° (Epoch: 12 January)

Event Time Altitude Azimuth Distance (km) Brightness Sun altitude
Exits shadow 16:02:07 - 19° (NNE) 2,273 6.0 -6.6°
Reaches altitude 10° 16:03:49 10° 24° (NNE) 1,563 5.2 -6.9°
Maximum altitude 16:07:04 47° 100° (E) 593 3.2 -7.3°
Drops below altitude 10° 16:10:15 10° 175° (S) 1,540 5.9 -7.8°
Sets 16:12:18 0° 182° (S) 2,400 7.0 -8.1°
